Find Starlink 4340

NORAD ID: 53494 Int'l Des: 2022-099 Owner: SPXS Country: US Constellation: starlink operational
LEOCIRCULARRETROGRADESSO

Live Position

Loading 3D Globe...

About Starlink 4340

Description loading...

Upcoming Passes

Passes for default location (London). Set your location on the main map for personalized predictions.

Altitude History

Loading altitude history...

Two-Line Element Set

1 53494U 22099AF 26106.57840398 .00000032 00000-0 64125-5 0 9994
2 53494 97.6021 228.6135 0000805 187.1052 173.0163 15.05646130201753
Epoch: Apr 16, 2026 • Age: 11 hours

Current Status

Altitude 555.2 km
Velocity 7.58 km/s
Sub-Earth Point -11.13°S, 10.43°E
Launch Date Aug 12, 2022
Age 3.6 years
Type internet

Technical Details

Classification Payload
Mass 300.00 kg
Dry Mass 275.00 kg
Total Mass 300.00 kg
Length 0.20 m
Diameter 2.80 m
Span 9.00 m
Shape Box + pan
Manufacturer SPXS
Bus Type Starlink
Phase Status In Orbit
Owner/State SPXS/US

Most Searched